When you browse on this site, cookies collect data to enhance your experience and personalize the content and advertising you see.
Visit our Privacy Policy to learn more. By continuing to use the site, you agree to this use of cookies and data.
  • în România
  • Lista ţărilor
  • Pe 7 zile
  • Temperatura apei
  • Hartă satelitară
  • Meteo pe hartă
  • Widget-uri
  • user-avatar
    Intrare

    Meteo pe oră la Ploieşti

    Astăzi, 18 Iunie, Marţi

    Timp Temperatura Precipitaţii Vânt Presiune Umiditate
    00:00 +22°C° 0.9 mm 3 m/s 747 mmHg 77%
    01:00 +21°C° 0.9 mm 2 m/s 747 mmHg 81%
    02:00 +21°C° 0.9 mm 2 m/s 747 mmHg 84%
    03:00 +21°C° 0.1 mm 2 m/s 747 mmHg 85%
    04:00 +21°C° 0.1 mm 2 m/s 747 mmHg 85%
    05:00 +20°C° 0.1 mm 2 m/s 747 mmHg 85%
    06:00 +23°C° 0.3 mm 2 m/s 747 mmHg 80%
    07:00 +25°C° 0.3 mm 2 m/s 748 mmHg 75%
    08:00 +27°C° 0.3 mm 2 m/s 748 mmHg 70%
    09:00 +28°C° 1.2 mm 2 m/s 748 mmHg 65%
    10:00 +29°C° 1.2 mm 3 m/s 748 mmHg 61%
    11:00 +30°C° 1.2 mm 4 m/s 748 mmHg 57%
    12:00 +30°C° 1 mm 4 m/s 748 mmHg 57%
    13:00 +30°C° 1 mm 4 m/s 748 mmHg 57%
    14:00 +30°C° 1 mm 4 m/s 747 mmHg 57%
    15:00 +30°C° 1 mm 4 m/s 747 mmHg 58%
    16:00 +30°C° 1 mm 4 m/s 747 mmHg 60%
    17:00 +29°C° 1 mm 3 m/s 747 mmHg 61%
    18:00 +28°C° 0.1 mm 3 m/s 746 mmHg 65%
    19:00 +26°C° 0.1 mm 2 m/s 746 mmHg 69%
    20:00 +25°C° 0.1 mm 2 m/s 746 mmHg 73%
    21:00 +24°C° 0.2 mm 2 m/s 747 mmHg 75%
    22:00 +23°C° 0.2 mm 2 m/s 747 mmHg 77%
    23:00 +21°C° 0.2 mm 2 m/s 747 mmHg 79%

    Mâine, 19 Iunie, Miercuri

    Timp Temperatura Precipitaţii Vânt Presiune Umiditate
    00:00 +21°C° 0 mm 2 m/s 747 mmHg 79%
    01:00 +20°C° 0 mm 2 m/s 747 mmHg 79%
    02:00 +20°C° 0 mm 2 m/s 747 mmHg 78%
    03:00 +20°C° 0 mm 2 m/s 747 mmHg 78%
    04:00 +20°C° 0 mm 2 m/s 747 mmHg 78%
    05:00 +20°C° 0 mm 2 m/s 747 mmHg 78%
    06:00 +23°C° 0 mm 2 m/s 747 mmHg 74%
    07:00 +25°C° 0 mm 2 m/s 747 mmHg 69%
    08:00 +27°C° 0 mm 2 m/s 747 mmHg 65%
    09:00 +28°C° 0.2 mm 2 m/s 747 mmHg 62%
    10:00 +29°C° 0.2 mm 2 m/s 747 mmHg 59%
    11:00 +30°C° 0.2 mm 3 m/s 747 mmHg 56%
    12:00 +30°C° 1.3 mm 2 m/s 746 mmHg 57%
    13:00 +30°C° 1.3 mm 2 m/s 746 mmHg 58%
    14:00 +30°C° 1.3 mm 2 m/s 746 mmHg 59%
    15:00 +29°C° 0.8 mm 2 m/s 746 mmHg 60%
    16:00 +29°C° 0.8 mm 2 m/s 745 mmHg 61%
    17:00 +29°C° 0.8 mm 2 m/s 745 mmHg 63%
    18:00 +27°C° 0.5 mm 2 m/s 745 mmHg 68%
    19:00 +26°C° 0.5 mm 2 m/s 745 mmHg 72%
    20:00 +25°C° 0.5 mm 1 m/s 745 mmHg 77%
    21:00 +24°C° 0.5 mm 2 m/s 745 mmHg 79%
    22:00 +23°C° 0.5 mm 2 m/s 746 mmHg 82%
    23:00 +21°C° 0.5 mm 2 m/s 746 mmHg 84%

    Poimâine, 20 Iunie, Joi

    Timp Temperatura Precipitaţii Vânt Presiune Umiditate
    00:00 +21°C° 0.5 mm 2 m/s 746 mmHg 84%
    01:00 +21°C° 0.5 mm 2 m/s 746 mmHg 84%
    02:00 +21°C° 0.5 mm 2 m/s 745 mmHg 85%
    03:00 +21°C° 0 mm 2 m/s 745 mmHg 85%
    04:00 +20°C° 0 mm 2 m/s 745 mmHg 85%
    05:00 +20°C° 0 mm 2 m/s 745 mmHg 85%
    06:00 +23°C° 0.1 mm 2 m/s 745 mmHg 81%
    07:00 +25°C° 0.1 mm 2 m/s 745 mmHg 76%
    08:00 +26°C° 0.1 mm 2 m/s 746 mmHg 71%
    09:00 +27°C° 0.5 mm 2 m/s 746 mmHg 66%
    10:00 +28°C° 0.5 mm 2 m/s 746 mmHg 61%
    11:00 +30°C° 0.5 mm 3 m/s 746 mmHg 56%
    12:00 +30°C° 0.2 mm 3 m/s 745 mmHg 56%
    13:00 +30°C° 0.2 mm 3 m/s 745 mmHg 56%
    14:00 +30°C° 0.2 mm 3 m/s 745 mmHg 55%
    15:00 +30°C° 0.5 mm 2 m/s 745 mmHg 57%
    16:00 +30°C° 0.5 mm 2 m/s 745 mmHg 58%
    17:00 +30°C° 0.5 mm 2 m/s 744 mmHg 60%
    18:00 +28°C° 0.3 mm 2 m/s 745 mmHg 64%
    19:00 +27°C° 0.3 mm 2 m/s 745 mmHg 69%
    20:00 +25°C° 0.3 mm 2 m/s 745 mmHg 73%
    21:00 +25°C° 0.2 mm 2 m/s 745 mmHg 76%
    22:00 +24°C° 0.2 mm 2 m/s 745 mmHg 78%
    23:00 +23°C° 0.2 mm 2 m/s 746 mmHg 80%

    21 Iunie, Vineri

    Timp Temperatura Precipitaţii Vânt Presiune Umiditate
    00:00 +23°C° 0.3 mm 2 m/s 746 mmHg 81%
    01:00 +23°C° 0.3 mm 2 m/s 746 mmHg 81%
    02:00 +23°C° 0.3 mm 1 m/s 745 mmHg 82%
    03:00 +22°C° 0.2 mm 1 m/s 746 mmHg 82%
    04:00 +22°C° 0.2 mm 1 m/s 746 mmHg 82%
    05:00 +22°C° 0.2 mm 1 m/s 746 mmHg 82%
    06:00 +24°C° 0 mm 1 m/s 746 mmHg 77%
    07:00 +25°C° 0 mm 1 m/s 746 mmHg 72%
    08:00 +27°C° 0 mm 1 m/s 747 mmHg 67%
    09:00 +28°C° 0.1 mm 1 m/s 747 mmHg 62%
    10:00 +30°C° 0.1 mm 1 m/s 747 mmHg 57%
    11:00 +31°C° 0.1 mm 2 m/s 747 mmHg 51%
    12:00 +31°C° 0 mm 2 m/s 746 mmHg 49%
    13:00 +32°C° 0 mm 2 m/s 746 mmHg 46%
    14:00 +32°C° 0 mm 2 m/s 746 mmHg 44%
    15:00 +32°C° 0 mm 2 m/s 746 mmHg 46%
    16:00 +32°C° 0 mm 2 m/s 746 mmHg 48%
    17:00 +32°C° 0 mm 1 m/s 745 mmHg 50%
    18:00 +30°C° 0 mm 1 m/s 746 mmHg 54%
    19:00 +28°C° 0 mm 1 m/s 746 mmHg 58%
    20:00 +27°C° 0 mm 1 m/s 746 mmHg 63%
    21:00 +26°C° 0 mm 1 m/s 746 mmHg 65%
    22:00 +25°C° 0 mm 1 m/s 746 mmHg 66%
    23:00 +24°C° 0 mm 2 m/s 747 mmHg 68%

    22 Iunie, Sâmbătă

    Timp Temperatura Precipitaţii Vânt Presiune Umiditate
    00:00 +24°C° 0.1 mm 2 m/s 747 mmHg 69%
    01:00 +24°C° 0.1 mm 2 m/s 747 mmHg 69%
    02:00 +23°C° 0.1 mm 1 m/s 746 mmHg 70%
    03:00 +23°C° 0.3 mm 1 m/s 746 mmHg 71%
    04:00 +23°C° 0.3 mm 1 m/s 746 mmHg 72%
    05:00 +22°C° 0.3 mm 1 m/s 746 mmHg 74%
    06:00 +24°C° 0.7 mm 1 m/s 747 mmHg 70%
    07:00 +26°C° 0.7 mm 1 m/s 747 mmHg 67%
    08:00 +25°C° 0.7 mm 0 m/s 747 mmHg 63%
    09:00 +29°C° 0.2 mm 1 m/s 747 mmHg 60%
    10:00 +30°C° 0.2 mm 1 m/s 747 mmHg 57%
    11:00 +31°C° 0.2 mm 1 m/s 747 mmHg 54%
    12:00 +31°C° 0.1 mm 1 m/s 747 mmHg 52%
    13:00 +32°C° 0.1 mm 2 m/s 747 mmHg 50%
    14:00 +34°C° 0.1 mm 2 m/s 747 mmHg 48%
    15:00 +32°C° 0.2 mm 2 m/s 746 mmHg 51%
    16:00 +32°C° 0.2 mm 2 m/s 746 mmHg 54%
    17:00 +31°C° 0.2 mm 1 m/s 746 mmHg 57%
    18:00 +29°C° 0.6 mm 1 m/s 746 mmHg 63%
    19:00 +27°C° 0.6 mm 1 m/s 746 mmHg 69%
    20:00 +25°C° 0.6 mm 1 m/s 746 mmHg 75%
    21:00 +25°C° 0.6 mm 1 m/s 747 mmHg 77%
    22:00 +24°C° 0.6 mm 1 m/s 747 mmHg 79%
    23:00 +24°C° 0.6 mm 1 m/s 747 mmHg 81%

    23 Iunie, Duminică

    Timp Temperatura Precipitaţii Vânt Presiune Umiditate
    00:00 +23°C° 0.7 mm 1 m/s 747 mmHg 82%
    01:00 +23°C° 0.7 mm 1 m/s 747 mmHg 84%
    02:00 +21°C° 0.7 mm 2 m/s 747 mmHg 85%
    03:00 +21°C° 0.1 mm 2 m/s 747 mmHg 84%
    04:00 +21°C° 0.1 mm 2 m/s 747 mmHg 84%
    05:00 +21°C° 0.1 mm 2 m/s 747 mmHg 83%
    06:00 +23°C° 0 mm 2 m/s 747 mmHg 78%
    07:00 +25°C° 0 mm 1 m/s 747 mmHg 73%
    08:00 +27°C° 0 mm 1 m/s 748 mmHg 68%
    09:00 +28°C° 0 mm 1 m/s 748 mmHg 64%
    10:00 +29°C° 0 mm 1 m/s 748 mmHg 61%
    11:00 +31°C° 0 mm 1 m/s 748 mmHg 58%
    12:00 +31°C° 0.2 mm 1 m/s 747 mmHg 55%
    13:00 +32°C° 0.2 mm 1 m/s 747 mmHg 52%
    14:00 +34°C° 0.2 mm 2 m/s 747 mmHg 50%
    15:00 +32°C° 0 mm 1 m/s 747 mmHg 50%
    16:00 +32°C° 0 mm 1 m/s 747 mmHg 50%
    17:00 +32°C° 0 mm 1 m/s 747 mmHg 50%
    18:00 +30°C° 0.4 mm 1 m/s 747 mmHg 55%
    19:00 +29°C° 0.4 mm 1 m/s 747 mmHg 61%
    20:00 +27°C° 0.4 mm 1 m/s 747 mmHg 66%
    21:00 +26°C° 0.7 mm 2 m/s 747 mmHg 69%
    22:00 +25°C° 0.7 mm 2 m/s 747 mmHg 72%
    23:00 +24°C° 0.7 mm 2 m/s 748 mmHg 75%
    Arată mai mult